timestamp,wind_dir_avg,wind_spd_avg,wind_spd_max_dir,wind_spd_gust,battery_voltage,lat,long
2019-11-16 00:04:01+00:00,202.0,15.06,208.0,17.06,12.57,47.59359,-54.27349
2019-11-16 00:14:01+00:00,196.0,15.6,192.0,17.69,12.57,47.59359,-54.27349
2019-11-16 00:24:01+00:00,193.0,14.62,192.0,16.98,12.57,47.59359,-54.27349
2019-11-16 00:34:01+00:00,200.0,15.07,211.0,17.76,12.57,47.59359,-54.27349
2019-11-16 00:44:01+00:00,197.0,17.1,198.0,20.0,12.57,47.59359,-54.27349
2019-11-16 00:54:01+00:00,194.0,17.23,197.0,20.61,12.57,47.59359,-54.27349
2019-11-16 01:04:01+00:00,193.0,16.67,194.0,19.98,12.57,47.59359,-54.27349
2019-11-16 01:14:01+00:00,201.0,16.46,204.0,19.05,12.49,47.59359,-54.27349
2019-11-16 01:24:01+00:00,204.0,15.57,203.0,17.51,12.49,47.59359,-54.27349
2019-11-16 01:34:01+00:00,203.0,14.81,208.0,17.15,12.49,47.59359,-54.27349
2019-11-16 01:44:01+00:00,201.0,14.31,207.0,16.45,12.49,47.59359,-54.27349
2019-11-16 01:54:01+00:00,199.0,15.04,204.0,17.48,12.49,47.59359,-54.27349
2019-11-16 02:04:01+00:00,197.0,15.46,196.0,18.67,12.49,47.59359,-54.27349
2019-11-16 02:14:01+00:00,199.0,13.25,200.0,15.76,12.49,47.59359,-54.27349
2019-11-16 02:24:01+00:00,203.0,15.57,211.0,18.36,12.49,47.59359,-54.27349
2019-11-16 02:34:01+00:00,203.0,16.92,200.0,20.5,12.49,47.59359,-54.27349
2019-11-16 02:44:01+00:00,207.0,17.68,213.0,20.87,12.49,47.59359,-54.27349
2019-11-16 02:54:01+00:00,207.0,16.74,219.0,20.3,12.49,47.59359,-54.27349
2019-11-16 03:04:01+00:00,210.0,16.61,213.0,21.5,12.49,47.59359,-54.27349
2019-11-16 03:14:01+00:00,205.0,17.79,205.0,21.48,12.49,47.59359,-54.27349
2019-11-16 03:24:01+00:00,204.0,18.64,202.0,22.17,12.49,47.59359,-54.27349
2019-11-16 03:34:01+00:00,205.0,17.81,210.0,23.49,12.49,47.59359,-54.27349
2019-11-16 03:44:01+00:00,204.0,19.07,205.0,23.12,12.49,47.59359,-54.27349
2019-11-16 03:54:01+00:00,206.0,18.18,204.0,22.18,12.49,47.59359,-54.27349
2019-11-16 04:04:01+00:00,202.0,19.35,191.0,23.55,12.49,47.59359,-54.27349
2019-11-16 04:14:01+00:00,206.0,19.11,205.0,22.31,12.41,47.59359,-54.27349
2019-11-16 04:24:01+00:00,208.0,17.63,206.0,22.2,12.41,47.59359,-54.27349
2019-11-16 04:34:01+00:00,203.0,20.59,202.0,27.09,12.41,47.59359,-54.27349
2019-11-16 04:44:01+00:00,202.0,20.66,199.0,25.73,12.41,47.59359,-54.27349
2019-11-16 04:54:01+00:00,207.0,19.01,198.0,24.18,12.41,47.59359,-54.27349
2019-11-16 05:04:01+00:00,209.0,18.23,215.0,21.73,12.41,47.59359,-54.27349
2019-11-16 05:14:01+00:00,207.0,16.96,205.0,20.57,12.41,47.59359,-54.27349
2019-11-16 05:24:01+00:00,203.0,17.31,197.0,21.46,12.41,47.59359,-54.27349
2019-11-16 05:34:01+00:00,206.0,20.36,205.0,24.71,12.41,47.59359,-54.27349
2019-11-16 05:44:01+00:00,205.0,19.09,203.0,24.12,12.41,47.59359,-54.27349
2019-11-16 05:54:01+00:00,205.0,18.84,196.0,23.14,12.41,47.59359,-54.27349
2019-11-16 06:04:01+00:00,204.0,18.11,199.0,23.8,12.41,47.59359,-54.27349
2019-11-16 06:14:01+00:00,213.0,17.93,218.0,21.66,12.41,47.59359,-54.27349
2019-11-16 06:24:01+00:00,209.0,18.09,211.0,22.53,12.41,47.59359,-54.27349
2019-11-16 06:34:01+00:00,209.0,17.24,214.0,20.53,12.41,47.59359,-54.27349
2019-11-16 06:44:01+00:00,209.0,19.7,212.0,24.25,12.41,47.59359,-54.27349
2019-11-16 06:54:01+00:00,208.0,19.33,201.0,23.08,12.41,47.59359,-54.27349
2019-11-16 07:04:01+00:00,206.0,21.74,205.0,25.5,12.41,47.59359,-54.27349
2019-11-16 07:14:01+00:00,210.0,22.79,205.0,26.54,12.41,47.59359,-54.27349
2019-11-16 07:24:01+00:00,213.0,20.31,217.0,23.28,12.41,47.59359,-54.27349
2019-11-16 07:34:01+00:00,211.0,21.71,214.0,25.13,12.41,47.59359,-54.27349
2019-11-16 07:44:01+00:00,210.0,17.73,206.0,21.59,12.41,47.59359,-54.27349
2019-11-16 07:54:01+00:00,208.0,20.84,212.0,29.52,12.41,47.59359,-54.27349
2019-11-16 08:04:01+00:00,211.0,20.73,219.0,29.48,12.41,47.59359,-54.27349
2019-11-16 08:14:01+00:00,211.0,19.68,216.0,23.21,12.33,47.59359,-54.27349
2019-11-16 08:24:01+00:00,209.0,22.38,210.0,26.81,12.33,47.59359,-54.27349
2019-11-16 08:34:01+00:00,209.0,22.84,207.0,26.97,12.33,47.59359,-54.27349
2019-11-16 08:44:01+00:00,209.0,20.54,201.0,23.74,12.33,47.59359,-54.27349
2019-11-16 08:54:01+00:00,215.0,18.64,222.0,21.31,12.33,47.59359,-54.27349
2019-11-16 09:04:01+00:00,219.0,20.81,210.0,26.35,12.33,47.59359,-54.27349
2019-11-16 09:14:01+00:00,216.0,19.22,221.0,23.49,12.33,47.59359,-54.27349
2019-11-16 09:24:01+00:00,211.0,18.4,219.0,24.69,12.33,47.59359,-54.27349
2019-11-16 09:34:01+00:00,210.0,18.92,210.0,23.11,12.33,47.59359,-54.27349
2019-11-16 09:44:01+00:00,211.0,24.01,215.0,26.74,12.33,47.59359,-54.27349
2019-11-16 09:54:01+00:00,214.0,19.88,216.0,25.04,12.33,47.59359,-54.27349
2019-11-16 10:04:01+00:00,224.0,17.51,220.0,22.28,12.33,47.59359,-54.27349
2019-11-16 10:14:01+00:00,239.0,16.47,227.0,19.77,12.33,47.59359,-54.27349
2019-11-16 10:24:01+00:00,240.0,15.64,240.0,18.54,12.33,47.59359,-54.27349
2019-11-16 10:34:01+00:00,259.0,12.83,256.0,14.39,12.33,47.59359,-54.27349
2019-11-16 10:44:01+00:00,257.0,11.14,253.0,12.71,12.33,47.59359,-54.27349
2019-11-16 10:54:01+00:00,255.0,10.22,259.0,11.14,12.33,47.59359,-54.27349
2019-11-16 11:04:01+00:00,255.0,10.8,257.0,12.24,12.33,47.59359,-54.27349
2019-11-16 11:14:01+00:00,251.0,9.06,254.0,10.31,12.33,47.59359,-54.27349
2019-11-16 11:24:01+00:00,242.0,8.64,243.0,10.4,12.33,47.59359,-54.27349
2019-11-16 11:34:01+00:00,249.0,7.97,250.0,8.94,12.33,47.59359,-54.27349
2019-11-16 11:44:01+00:00,255.0,9.5,256.0,10.04,12.33,47.59359,-54.27349
2019-11-16 11:54:01+00:00,260.0,8.94,264.0,10.16,12.33,47.59359,-54.27349
2019-11-16 12:04:01+00:00,259.0,10.43,260.0,12.34,12.33,47.59359,-54.27349
2019-11-16 13:14:01+00:00,237.0,10.41,233.0,12.43,12.41,47.59359,-54.27349
2019-11-16 13:24:01+00:00,249.0,11.03,250.0,12.84,12.41,47.59359,-54.27349
2019-11-16 13:34:01+00:00,246.0,10.84,239.0,12.83,12.41,47.59359,-54.27349
2019-11-16 13:44:01+00:00,237.0,11.67,243.0,13.29,12.41,47.59359,-54.27349
2019-11-16 13:54:01+00:00,238.0,10.97,240.0,13.39,12.41,47.59359,-54.27349
2019-11-16 14:04:01+00:00,244.0,9.43,245.0,11.07,12.41,47.59359,-54.27349
2019-11-16 14:14:01+00:00,254.0,15.95,253.0,19.14,13.6,47.59359,-54.27349
2019-11-16 14:24:01+00:00,251.0,10.77,243.0,13.2,13.6,47.59359,-54.27349
2019-11-16 14:34:01+00:00,280.0,16.59,286.0,20.52,13.6,47.59359,-54.27349
2019-11-16 14:44:01+00:00,267.0,12.42,264.0,14.22,13.6,47.59359,-54.27349
2019-11-16 14:54:01+00:00,268.0,13.47,263.0,15.52,13.6,47.59359,-54.27349
2019-11-16 15:04:01+00:00,282.0,13.1,290.0,15.94,13.6,47.59359,-54.27349
2019-11-16 15:14:01+00:00,275.0,14.66,270.0,17.11,13.44,47.59359,-54.27349
2019-11-16 15:24:01+00:00,284.0,12.74,283.0,15.63,13.44,47.59359,-54.27349
2019-11-16 15:34:01+00:00,299.0,12.1,299.0,17.17,13.44,47.59359,-54.27349
2019-11-16 15:44:01+00:00,291.0,10.35,297.0,12.21,13.44,47.59359,-54.27349
2019-11-16 15:54:01+00:00,289.0,9.5,285.0,11.35,13.44,47.59359,-54.27349
2019-11-16 16:04:01+00:00,280.0,10.7,283.0,12.77,13.44,47.59359,-54.27349
2019-11-16 16:14:01+00:00,283.0,14.22,284.0,18.3,13.21,47.59359,-54.27349
2019-11-16 16:24:01+00:00,273.0,14.15,272.0,16.27,13.21,47.59359,-54.27349
2019-11-16 16:34:01+00:00,281.0,12.07,274.0,14.4,13.21,47.59359,-54.27349
2019-11-16 16:44:01+00:00,275.0,12.17,272.0,15.07,13.21,47.59359,-54.27349
2019-11-16 16:54:01+00:00,278.0,13.94,276.0,17.53,13.21,47.59359,-54.27349
2019-11-16 17:04:01+00:00,280.0,18.23,274.0,22.38,13.21,47.59359,-54.27349
2019-11-16 17:14:01+00:00,271.0,16.85,272.0,20.51,13.76,47.59359,-54.27349
2019-11-16 17:24:01+00:00,280.0,15.59,285.0,17.38,13.76,47.59359,-54.27349
2019-11-16 17:34:01+00:00,291.0,17.81,290.0,20.42,13.76,47.59359,-54.27349
2019-11-16 17:44:01+00:00,298.0,15.39,304.0,18.05,13.76,47.59359,-54.27349
2019-11-16 17:54:01+00:00,293.0,11.49,283.0,14.54,13.76,47.59359,-54.27349
2019-11-16 18:04:01+00:00,294.0,9.45,301.0,11.31,13.76,47.59359,-54.27349
2019-11-16 18:14:01+00:00,310.0,9.69,311.0,12.05,13.53,47.59359,-54.27349
2019-11-16 18:24:01+00:00,298.0,9.13,308.0,11.25,13.53,47.59359,-54.27349
2019-11-16 18:34:01+00:00,288.0,13.73,291.0,15.93,13.53,47.59359,-54.27349
2019-11-16 18:44:01+00:00,280.0,12.9,277.0,15.73,13.53,47.59359,-54.27349
2019-11-16 18:54:01+00:00,292.0,11.98,289.0,13.63,13.53,47.59359,-54.27349
2019-11-16 19:04:01+00:00,291.0,13.03,285.0,16.79,13.53,47.59359,-54.27349
2019-11-16 19:14:01+00:00,295.0,14.02,298.0,16.19,13.44,47.59359,-54.27349
2019-11-16 19:24:01+00:00,292.0,12.81,286.0,15.22,13.44,47.59359,-54.27349
2019-11-16 19:34:01+00:00,297.0,12.93,297.0,15.25,13.44,47.59359,-54.27349
2019-11-16 19:44:01+00:00,286.0,12.52,288.0,14.36,13.44,47.59359,-54.27349
2019-11-16 19:54:01+00:00,291.0,12.85,294.0,15.46,13.44,47.59359,-54.27349
2019-11-16 20:04:01+00:00,279.0,10.99,277.0,14.32,13.44,47.59359,-54.27349
2019-11-16 20:14:01+00:00,286.0,10.55,275.0,12.39,12.97,47.59359,-54.27349
2019-11-16 20:24:01+00:00,299.0,11.65,299.0,14.88,12.97,47.59359,-54.27349
2019-11-16 20:34:01+00:00,297.0,10.07,288.0,11.6,12.97,47.59359,-54.27349
2019-11-16 20:44:01+00:00,298.0,10.26,299.0,12.0,12.97,47.59359,-54.27349
2019-11-16 20:54:01+00:00,291.0,12.52,278.0,14.76,12.97,47.59359,-54.27349
2019-11-16 21:04:01+00:00,294.0,11.99,296.0,14.92,12.97,47.59359,-54.27349
2019-11-16 21:14:01+00:00,295.0,12.07,291.0,15.42,12.73,47.59359,-54.27349
2019-11-16 21:24:01+00:00,293.0,13.56,294.0,15.73,12.73,47.59359,-54.27349
2019-11-16 21:34:01+00:00,295.0,10.55,302.0,12.54,12.73,47.59359,-54.27349
2019-11-16 21:44:01+00:00,288.0,11.16,292.0,12.68,12.73,47.59359,-54.27349
2019-11-16 21:54:01+00:00,278.0,12.84,280.0,14.89,12.73,47.59359,-54.27349
2019-11-16 22:04:01+00:00,298.0,12.71,296.0,14.39,12.73,47.59359,-54.27349
2019-11-16 22:14:01+00:00,291.0,13.64,300.0,16.19,12.65,47.59359,-54.27349
2019-11-16 22:24:01+00:00,294.0,12.45,293.0,15.12,12.65,47.59359,-54.27349
2019-11-16 22:34:01+00:00,290.0,13.68,294.0,15.72,12.65,47.59359,-54.27349
2019-11-16 22:44:01+00:00,295.0,11.9,291.0,14.63,12.65,47.59359,-54.27349
2019-11-16 22:54:01+00:00,303.0,14.45,305.0,18.7,12.65,47.59359,-54.27349
2019-11-16 23:04:01+00:00,297.0,12.15,303.0,14.19,12.65,47.59359,-54.27349
2019-11-16 23:14:01+00:00,302.0,12.17,300.0,14.01,12.57,47.59359,-54.27349
2019-11-16 23:24:01+00:00,293.0,12.52,291.0,14.74,12.57,47.59359,-54.27349
2019-11-16 23:34:01+00:00,301.0,14.34,300.0,16.57,12.57,47.59359,-54.27349
2019-11-16 23:44:01+00:00,300.0,13.03,299.0,16.21,12.57,47.59359,-54.27349
2019-11-16 23:54:01+00:00,290.0,15.23,288.0,18.81,12.57,47.59359,-54.27349
